User: anonymous   Login
Location: Unspecified
(0.0000°N, 0.0000°E)
Time: 15:02:45
(UTC+00:00)
Language:

USA 112 - Orbit

View from above orbital plane
View from above orbital plane
View from above satellite
View from above satellite

Ground track
Ground track

The orbit data is extracted from the following two-line orbital elements,

1 23609U 95034A   18133.75808208 0.00000000  00000-0  00000-0 0    08
2 23609  63.1174 111.7361 7015909 265.8205  18.3946  2.00612000    05
Epoch (UTC): 13 May 2018 18:11:38
Eccentricity: 0.7015909
inclination: 63.1174°
perigee height: 1546 km
apogee height: 38809 km
right ascension of ascending node: 111.7361°
argument of perigee: 265.8205°
revolutions per day: 2.00612000
mean anomaly at epoch: 18.3946°
orbit number at epoch: 0

The dashed part of the orbit path shows where the satellite is in the earth's shadow,  

DLR